QPF
0.01 0.01 0.00 0.00 0.00 0.00 0.00 0.00 0.00 0.00 0.00 0.00 0.00 0.00 0.00 0.00 0.00 0.00 0.00 0.00 0.00 0.00 0.01 0.01 0.03 0.04 0.04 0.03 0.03 0.03 0.04 0.04 0.05 0.06 0.06 0.06 0.08 0.11 0.12 0.12 0.13 0.12 0.09
0.01 0.01 0.01 0.00 0.00 0.00 0.00 0.00 0.00 0.00 0.00 0.00 0.00 0.00 0.00 0.00 0.00 0.00 0.00 0.00 0.00 0.00 0.00 0.00 0.01 0.03 0.03 0.03 0.03 0.03 0.03 0.04 0.04 0.05 0.06 0.06 0.05 0.07 0.10 0.12 0.13 0.13 0.13
0.01 0.01 0.01 0.00 0.00 0.00 0.00 0.00 0.00 0.00 0.00 0.00 0.00 0.00 0.00 0.00 0.00 0.00 0.00 0.00 0.00 0.00 0.00 0.00 0.01 0.01 0.02 0.02 0.02 0.03 0.03 0.03 0.03 0.04 0.05 0.06 0.05 0.05 0.06 0.08 0.10 0.12 0.13
0.01 0.01 0.01 0.00 0.00 0.00 0.00 0.00 0.00 0.00 0.00 0.00 0.00 0.00 0.00 0.00 0.00 0.00 0.00 0.00 0.00 0.00 0.00 0.00 0.00 0.01 0.01 0.01 0.02 0.02 0.03 0.03 0.03 0.04 0.04 0.05 0.04 0.05 0.05 0.06 0.06 0.08 0.08
0.01 0.00 0.00 0.00 0.00 0.00 0.00 0.00 0.00 0.00 0.00 0.00 0.00 0.00 0.00 0.00 0.00 0.00 0.00 0.00 0.00 0.00 0.00 0.00 0.00 0.00 0.00 0.01 0.01 0.02 0.02 0.03 0.03 0.03 0.03 0.04 0.04 0.04 0.04 0.04 0.04 0.05 0.06
0.00 0.00 0.00 0.00 0.00 0.00 0.00 0.00 0.00 0.00 0.00 0.00 0.00 0.00 0.00 0.00 0.00 0.00 0.00 0.00 0.00 0.00 0.00 0.00 0.00 0.00 0.00 0.00 0.01 0.01 0.02 0.03 0.03 0.04 0.04 0.05 0.06 0.06 0.05 0.05 0.04 0.05 0.06
0.00 0.00 0.00 0.00 0.00 0.00 0.00 0.00 0.00 0.00 0.00 0.00 0.00 0.00 0.00 0.00 0.00 0.00 0.00 0.00 0.00 0.00 0.00 0.00 0.00 0.00 0.00 0.00 0.00 0.01 0.01 0.02 0.03 0.03 0.03 0.04 0.05 0.06 0.05 0.05 0.04 0.04 0.04
0.00 0.00 0.00 0.00 0.00 0.00 0.00 0.00 0.00 0.00 0.00 0.00 0.00 0.00 0.00 0.00 0.00 0.00 0.00 0.00 0.00 0.00 0.00 0.00 0.00 0.00 0.00 0.00 0.00 0.01 0.02 0.01 0.01 0.02 0.02 0.03 0.03 0.04 0.05 0.05 0.05 0.04 0.03
0.00 0.00 0.00 0.00 0.00 0.00 0.00 0.00 0.00 0.00 0.00 0.00 0.00 0.00 0.00 0.00 0.00 0.00 0.00 0.00 0.00 0.00 0.00 0.00 0.00 0.00 0.00 0.00 0.00 0.01 0.02 0.02 0.02 0.03 0.03 0.02 0.02 0.02 0.03 0.05 0.06 0.06 0.05
0.00 0.00 0.00 0.00 0.00 0.00 0.00 0.00 0.00 0.00 0.00 0.00 0.00 0.00 0.00 0.00 0.00 0.00 0.00 0.00 0.00 0.00 0.00 0.00 0.00 0.00 0.00 0.00 0.00 0.01 0.01 0.01 0.02 0.03 0.03 0.01 0.01 0.02 0.02 0.03 0.04 0.04 0.04
0.00 0.00 0.00 0.00 0.00 0.00 0.00 0.00 0.00 0.00 0.00 0.00 0.00 0.00 0.00 0.00 0.00 0.00 0.00 0.00 0.00 0.00 0.00 0.00 0.00 0.00 0.00 0.00 0.00 0.01 0.01 0.01 0.01 0.01 0.01 0.01 0.01 0.01 0.02 0.02 0.02 0.03 0.03
0.00 0.00 0.00 0.00 0.00 0.00 0.00 0.00 0.00 0.00 0.00 0.00 0.00 0.00 0.00 0.00 0.00 0.00 0.00 0.00 0.00 0.00 0.00 0.00 0.01 0.01 0.01 0.01 0.01 0.01 0.01 0.01 0.01 0.01 0.01 0.01 0.01 0.01 0.01 0.02 0.02 0.03 0.03
0.00 0.00 0.00 0.00 0.00 0.00 0.00 0.00 0.00 0.00 0.00 0.00 0.00 0.00 0.00 0.00 0.00 0.00 0.00 0.00 0.00 0.00 0.00 0.01 0.01 0.01 0.01 0.01 0.01 0.01 0.01 0.01 0.01 0.01 0.01 0.01 0.01 0.01 0.02 0.02 0.02 0.02 0.02
0.00 0.00 0.00 0.00 0.00 0.00 0.00 0.00 0.00 0.00 0.00 0.00 0.00 0.00 0.00 0.00 0.00 0.00 0.00 0.00 0.00 0.01 0.01 0.01 0.01 0.01 0.00 0.00 0.01 0.02 0.03 0.02 0.01 0.01 0.01 0.01 0.01 0.01 0.01 0.02 0.02 0.02 0.02
0.00 0.00 0.00 0.00 0.00 0.00 0.00 0.00 0.00 0.00 0.00 0.00 0.00 0.00 0.00 0.01 0.01 0.01 0.01 0.01 0.01 0.01 0.00 0.00 0.00 0.00 0.00 0.00 0.00 0.01 0.01 0.01 0.01 0.01 0.01 0.01 0.01 0.01 0.01 0.01 0.01 0.01 0.01
0.00 0.00 0.00 0.00 0.00 0.00 0.00 0.00 0.00 0.00 0.00 0.00 0.00 0.00 0.00 0.01 0.01 0.00 0.01 0.01 0.01 0.00 0.00 0.00 0.00 0.00 0.00 0.00 0.00 0.00 0.01 0.01 0.00 0.00 0.00 0.00 0.01 0.01 0.01 0.01 0.01 0.01 0.01
0.00 0.00 0.00 0.00 0.00 0.00 0.00 0.00 0.00 0.00 0.00 0.00 0.00 0.00 0.00 0.00 0.00 0.00 0.00 0.00 0.00 0.00 0.00 0.00 0.00 0.00 0.00 0.00 0.00 0.00 0.00 0.00 0.00 0.00 0.00 0.00 0.00 0.00 0.00 0.00 0.00 0.01 0.01
0.00 0.00 0.00 0.00 0.00 0.00 0.00 0.00 0.00 0.00 0.00 0.00 0.00 0.00 0.00 0.00 0.00 0.00 0.00 0.00 0.00 0.00 0.00 0.00 0.00 0.00 0.00 0.00 0.00 0.00 0.00 0.00 0.00 0.01 0.01 0.01 0.01 0.01 0.01 0.00 0.00 0.00 0.00
0.00 0.00 0.00 0.00 0.00 0.00 0.00 0.00 0.00 0.00 0.00 0.00 0.00 0.00 0.00 0.00 0.00 0.00 0.00 0.00 0.00 0.00 0.00 0.00 0.00 0.00 0.00 0.01 0.01 0.00 0.00 0.00 0.00 0.00 0.00 0.00 0.01 0.01 0.01 0.01 0.01 0.00 0.00
0.00 0.00 0.00 0.00 0.00 0.00 0.00 0.00 0.00 0.00 0.00 0.00 0.00 0.00 0.00 0.00 0.00 0.00 0.00 0.00 0.00 0.00 0.00 0.00 0.00 0.00 0.00 0.00 0.01 0.01 0.01 0.01 0.01 0.00 0.00 0.00 0.00 0.00 0.01 0.01 0.01 0.01 0.00
0.00 0.00 0.00 0.00 0.00 0.00 0.00 0.00 0.00 0.00 0.00 0.00 0.00 0.00 0.00 0.00 0.00 0.00 0.00 0.00 0.00 0.00 0.00 0.00 0.00 0.00 0.00 0.00 0.00 0.01 0.01 0.01 0.01 0.00 0.00 0.00 0.00 0.00 0.00 0.01 0.01 0.00 0.00
0.00 0.00 0.00 0.00 0.00 0.00 0.00 0.00 0.00 0.00 0.00 0.00 0.00 0.00 0.00 0.00 0.00 0.00 0.00 0.00 0.00 0.00 0.00 0.00 0.00 0.00 0.00 0.00 0.00 0.00 0.00 0.01 0.00 0.00 0.00 0.00 0.00 0.00 0.00 0.00 0.00 0.00 0.00
0.00 0.00 0.00 0.00 0.00 0.00 0.00 0.00 0.00 0.00 0.00 0.00 0.00 0.00 0.00 0.00 0.00 0.00 0.00 0.00 0.00 0.00 0.00 0.00 0.00 0.00 0.00 0.00 0.00 0.00 0.00 0.00 0.00 0.00 0.00 0.00 0.00 0.00 0.00 0.00 0.00 0.00 0.00
0.00 0.00 0.00 0.00 0.00 0.00 0.00 0.00 0.00 0.00 0.00 0.00 0.00 0.00 0.00 0.00 0.00 0.00 0.00 0.00 0.00 0.00 0.00 0.00 0.00 0.00 0.00 0.00 0.00 0.00 0.00 0.00 0.00 0.00 0.00 0.00 0.00 0.00 0.00 0.00 0.00 0.00 0.00
0.00 0.00 0.00 0.00 0.00 0.00 0.00 0.00 0.00 0.00 0.00 0.00 0.00 0.00 0.00 0.00 0.00 0.00 0.00 0.00 0.00 0.00 0.00 0.00 0.00 0.00 0.00 0.00 0.00 0.00 0.00 0.00 0.00 0.00 0.00 0.00 0.00 0.00 0.00 0.00 0.00 0.00 0.00
0.00 0.00 0.00 0.00 0.00 0.00 0.00 0.00 0.00 0.00 0.00 0.00 0.00 0.00 0.00 0.00 0.00 0.00 0.00 0.00 0.00 0.00 0.00 0.00 0.00 0.00 0.00 0.00 0.00 0.00 0.00 0.00 0.00 0.00 0.00 0.00 0.00 0.00 0.00 0.00 0.00 0.00 0.00
MSLP
1020.57 1021.14 1021.71 1022.23 1022.64 1022.93 1023.06 1023.04 1022.90 1022.67 1022.39 1022.11 1021.84 1021.61 1021.44 1021.30 1021.20 1021.10 1020.98 1020.81 1020.60 1020.31 1019.97 1019.57 1019.14 1018.68 1018.21 1017.73 1017.24 1016.73 1016.18 1015.57 1014.89 1014.16 1013.37 1012.55 1011.76 1011.02 1010.38 1009.88 1009.53 1009.34 1009.29
1019.85 1020.50 1021.16 1021.78 1022.31 1022.70 1022.93 1023.01 1022.96 1022.80 1022.59 1022.35 1022.11 1021.91 1021.74 1021.61 1021.50 1021.40 1021.28 1021.13 1020.94 1020.68 1020.38 1020.02 1019.62 1019.20 1018.76 1018.30 1017.82 1017.31 1016.76 1016.14 1015.46 1014.70 1013.89 1013.05 1012.21 1011.42 1010.73 1010.17 1009.78 1009.56 1009.50
1019.18 1019.89 1020.62 1021.32 1021.93 1022.40 1022.73 1022.91 1022.94 1022.88 1022.73 1022.55 1022.36 1022.18 1022.02 1021.88 1021.76 1021.65 1021.53 1021.39 1021.21 1021.00 1020.73 1020.42 1020.07 1019.70 1019.29 1018.86 1018.41 1017.93 1017.40 1016.81 1016.15 1015.42 1014.63 1013.80 1012.97 1012.17 1011.46 1010.87 1010.44 1010.19 1010.11
1018.62 1019.36 1020.13 1020.88 1021.53 1022.07 1022.47 1022.73 1022.85 1022.87 1022.81 1022.70 1022.56 1022.41 1022.26 1022.11 1021.98 1021.86 1021.73 1021.59 1021.44 1021.25 1021.03 1020.77 1020.48 1020.15 1019.79 1019.41 1018.99 1018.55 1018.06 1017.53 1016.93 1016.27 1015.55 1014.78 1013.99 1013.22 1012.51 1011.90 1011.44 1011.15 1011.03
1018.20 1018.95 1019.73 1020.48 1021.16 1021.72 1022.16 1022.48 1022.68 1022.79 1022.81 1022.77 1022.69 1022.58 1022.45 1022.31 1022.17 1022.03 1021.89 1021.76 1021.62 1021.46 1021.29 1021.08 1020.83 1020.56 1020.25 1019.90 1019.54 1019.14 1018.72 1018.25 1017.74 1017.18 1016.55 1015.88 1015.16 1014.44 1013.75 1013.15 1012.65 1012.31 1012.13
1017.92 1018.66 1019.42 1020.14 1020.78 1021.34 1021.80 1022.15 1022.42 1022.60 1022.70 1022.75 1022.73 1022.67 1022.57 1022.45 1022.30 1022.16 1022.02 1021.89 1021.76 1021.64 1021.50 1021.33 1021.14 1020.90 1020.63 1020.33 1020.01 1019.66 1019.30 1018.92 1018.50 1018.05 1017.53 1016.96 1016.35 1015.69 1015.05 1014.44 1013.92 1013.51 1013.25
1017.75 1018.45 1019.15 1019.80 1020.39 1020.91 1021.35 1021.73 1022.03 1022.28 1022.47 1022.60 1022.66 1022.67 1022.61 1022.51 1022.39 1022.25 1022.11 1021.99 1021.88 1021.78 1021.67 1021.54 1021.38 1021.18 1020.94 1020.66 1020.37 1020.07 1019.76 1019.45 1019.13 1018.78 1018.38 1017.92 1017.41 1016.83 1016.23 1015.64 1015.09 1014.63 1014.29
1017.65 1018.28 1018.88 1019.44 1019.94 1020.39 1020.80 1021.17 1021.51 1021.82 1022.09 1022.30 1022.45 1022.53 1022.53 1022.48 1022.39 1022.27 1022.16 1022.05 1021.96 1021.89 1021.80 1021.70 1021.56 1021.37 1021.15 1020.89 1020.61 1020.33 1020.06 1019.81 1019.56 1019.30 1019.01 1018.66 1018.24 1017.75 1017.20 1016.62 1016.06 1015.55 1015.14
1017.54 1018.06 1018.55 1018.99 1019.39 1019.75 1020.11 1020.46 1020.82 1021.18 1021.52 1021.82 1022.06 1022.22 1022.31 1022.32 1022.28 1022.20 1022.13 1022.05 1022.00 1021.94 1021.89 1021.80 1021.67 1021.49 1021.26 1021.00 1020.72 1020.44 1020.19 1019.97 1019.78 1019.59 1019.38 1019.12 1018.80 1018.38 1017.89 1017.35 1016.79 1016.25 1015.78
1017.36 1017.75 1018.10 1018.41 1018.69 1018.97 1019.27 1019.60 1019.97 1020.37 1020.77 1021.15 1021.48 1021.73 1021.90 1021.99 1022.02 1022.01 1021.99 1021.96 1021.95 1021.93 1021.89 1021.83 1021.71 1021.52 1021.29 1021.01 1020.71 1020.43 1020.18 1019.97 1019.81 1019.66 1019.52 1019.34 1019.08 1018.75 1018.32 1017.82 1017.29 1016.75 1016.25
1017.06 1017.31 1017.53 1017.70 1017.87 1018.06 1018.29 1018.59 1018.96 1019.39 1019.85 1020.30 1020.71 1021.05 1021.31 1021.48 1021.60 1021.67 1021.71 1021.75 1021.79 1021.82 1021.81 1021.77 1021.66 1021.48 1021.23 1020.94 1020.62 1020.32 1020.06 1019.85 1019.70 1019.59 1019.48 1019.35 1019.16 1018.89 1018.53 1018.09 1017.60 1017.08 1016.58
1016.64 1016.76 1016.84 1016.90 1016.96 1017.07 1017.24 1017.51 1017.88 1018.32 1018.81 1019.31 1019.79 1020.20 1020.54 1020.81 1021.01 1021.16 1021.29 1021.40 1021.51 1021.59 1021.63 1021.62 1021.52 1021.35 1021.11 1020.81 1020.49 1020.17 1019.90 1019.69 1019.54 1019.43 1019.35 1019.26 1019.12 1018.91 1018.60 1018.22 1017.78 1017.31 1016.83
1016.15 1016.15 1016.11 1016.06 1016.04 1016.08 1016.20 1016.44 1016.79 1017.23 1017.74 1018.26 1018.77 1019.24 1019.65 1019.99 1020.27 1020.52 1020.73 1020.92 1021.10 1021.24 1021.34 1021.37 1021.31 1021.16 1020.93 1020.64 1020.32 1020.01 1019.73 1019.52 1019.37 1019.27 1019.20 1019.12 1019.02 1018.85 1018.60 1018.27 1017.88 1017.46 1017.02
1015.63 1015.53 1015.41 1015.29 1015.20 1015.18 1015.26 1015.46 1015.79 1016.21 1016.70 1017.22 1017.75 1018.24 1018.69 1019.09 1019.44 1019.76 1020.06 1020.33 1020.58 1020.80 1020.95 1021.03 1021.01 1020.90 1020.70 1020.44 1020.14 1019.85 1019.58 1019.37 1019.22 1019.12 1019.05 1018.99 1018.89 1018.75 1018.53 1018.25 1017.91 1017.53 1017.13
1015.17 1015.00 1014.81 1014.64 1014.51 1014.45 1014.50 1014.66 1014.95 1015.33 1015.78 1016.27 1016.78 1017.27 1017.74 1018.17 1018.58 1018.96 1019.33 1019.67 1019.99 1020.27 1020.48 1020.61 1020.65 1020.58 1020.43 1020.20 1019.94 1019.68 1019.43 1019.24 1019.09 1018.99 1018.92 1018.85 1018.76 1018.62 1018.42 1018.16 1017.85 1017.50 1017.14
1014.83 1014.61 1014.38 1014.17 1014.02 1013.93 1013.95 1014.07 1014.31 1014.63 1015.03 1015.47 1015.93 1016.40 1016.86 1017.31 1017.74 1018.17 1018.59 1018.99 1019.37 1019.70 1019.96 1020.14 1020.22 1020.20 1020.10 1019.92 1019.70 1019.48 1019.27 1019.09 1018.95 1018.85 1018.77 1018.68 1018.57 1018.42 1018.21 1017.96 1017.66 1017.33 1016.99
1014.62 1014.37 1014.13 1013.90 1013.73 1013.63 1013.62 1013.70 1013.88 1014.13 1014.46 1014.83 1015.23 1015.66 1016.09 1016.53 1016.98 1017.44 1017.89 1018.33 1018.75 1019.12 1019.42 1019.64 1019.75 1019.77 1019.71 1019.58 1019.41 1019.22 1019.04 1018.89 1018.76 1018.66 1018.56 1018.45 1018.31 1018.13 1017.90 1017.63 1017.32 1017.00 1016.66
1014.55 1014.28 1014.03 1013.80 1013.61 1013.50 1013.45 1013.49 1013.61 1013.80 1014.05 1014.34 1014.68 1015.05 1015.45 1015.87 1016.32 1016.79 1017.27 1017.73 1018.17 1018.56 1018.88 1019.12 1019.26 1019.30 1019.27 1019.17 1019.04 1018.89 1018.74 1018.61 1018.49 1018.38 1018.26 1018.12 1017.95 1017.73 1017.47 1017.17 1016.84 1016.50 1016.16
1014.58 1014.29 1014.02 1013.78 1013.59 1013.46 1013.39 1013.38 1013.44 1013.56 1013.74 1013.97 1014.24 1014.56 1014.92 1015.33 1015.77 1016.24 1016.72 1017.20 1017.65 1018.04 1018.37 1018.60 1018.74 1018.80 1018.78 1018.71 1018.60 1018.48 1018.35 1018.23 1018.12 1018.00 1017.86 1017.70 1017.49 1017.24 1016.94 1016.61 1016.26 1015.90 1015.54
1014.64 1014.33 1014.05 1013.80 1013.59 1013.44 1013.34 1013.30 1013.31 1013.37 1013.48 1013.65 1013.87 1014.15 1014.48 1014.87 1015.30 1015.77 1016.25 1016.73 1017.17 1017.56 1017.87 1018.10 1018.23 1018.29 1018.27 1018.21 1018.11 1018.00 1017.89 1017.78 1017.66 1017.53 1017.38 1017.19 1016.96 1016.68 1016.36 1016.00 1015.63 1015.25 1014.89
1014.69 1014.36 1014.06 1013.79 1013.57 1013.39 1013.26 1013.18 1013.15 1013.16 1013.23 1013.35 1013.53 1013.78 1014.09 1014.47 1014.90 1015.36 1015.84 1016.30 1016.73 1017.10 1017.39 1017.60 1017.72 1017.77 1017.75 1017.68 1017.59 1017.49 1017.38 1017.27 1017.15 1017.02 1016.86 1016.65 1016.41 1016.11 1015.77 1015.41 1015.02 1014.64 1014.27
1014.70 1014.34 1014.02 1013.73 1013.49 1013.29 1013.13 1013.02 1012.95 1012.93 1012.96 1013.05 1013.21 1013.43 1013.73 1014.10 1014.52 1014.98 1015.44 1015.89 1016.30 1016.65 1016.93 1017.11 1017.21 1017.25 1017.22 1017.15 1017.06 1016.96 1016.86 1016.75 1016.63 1016.49 1016.33 1016.12 1015.87 1015.57 1015.23 1014.87 1014.49 1014.12 1013.76
1014.67 1014.28 1013.93 1013.62 1013.36 1013.14 1012.96 1012.82 1012.72 1012.67 1012.68 1012.75 1012.89 1013.10 1013.39 1013.75 1014.16 1014.61 1015.06 1015.49 1015.87 1016.20 1016.45 1016.61 1016.70 1016.72 1016.69 1016.63 1016.54 1016.45 1016.35 1016.24 1016.12 1015.98 1015.82 1015.61 1015.37 1015.08 1014.76 1014.42 1014.06 1013.70 1013.36
1014.60 1014.19 1013.82 1013.49 1013.21 1012.96 1012.76 1012.60 1012.48 1012.41 1012.40 1012.46 1012.59 1012.80 1013.07 1013.42 1013.82 1014.24 1014.67 1015.07 1015.43 1015.73 1015.95 1016.10 1016.18 1016.20 1016.17 1016.11 1016.04 1015.95 1015.85 1015.75 1015.64 1015.50 1015.34 1015.14 1014.91 1014.65 1014.36 1014.04 1013.72 1013.39 1013.06
1014.51 1014.10 1013.71 1013.37 1013.06 1012.80 1012.57 1012.38 1012.25 1012.16 1012.14 1012.19 1012.31 1012.51 1012.78 1013.11 1013.48 1013.88 1014.27 1014.64 1014.97 1015.23 1015.44 1015.57 1015.65 1015.67 1015.65 1015.60 1015.54 1015.46 1015.38 1015.29 1015.18 1015.05 1014.89 1014.71 1014.50 1014.26 1014.00 1013.72 1013.43 1013.12 1012.82
1014.44 1014.01 1013.61 1013.25 1012.92 1012.63 1012.38 1012.18 1012.02 1011.93 1011.90 1011.95 1012.06 1012.26 1012.51 1012.82 1013.16 1013.52 1013.88 1014.21 1014.49 1014.73 1014.91 1015.03 1015.10 1015.13 1015.13 1015.10 1015.06 1015.00 1014.93 1014.84 1014.74 1014.61 1014.46 1014.29 1014.10 1013.88 1013.65 1013.40 1013.14 1012.87 1012.58
Thickness
5612 5609 5607 5605 5604 5603 5602 5602 5601 5601 5601 5602 5602 5602 5601 5599 5598 5597 5596 5596 5596 5597 5598 5598 5599 5599 5600 5600 5601 5603 5606 5609 5611 5614 5619 5624 5627 5628 5628 5629 5630 5630 5629
5607 5603 5601 5600 5599 5597 5596 5595 5594 5593 5592 5592 5591 5591 5590 5589 5588 5587 5586 5586 5586 5586 5587 5588 5588 5588 5589 5589 5590 5590 5593 5595 5596 5598 5603 5610 5615 5618 5618 5617 5618 5618 5618
5604 5601 5597 5595 5593 5591 5589 5587 5586 5585 5584 5583 5583 5582 5582 5582 5581 5579 5578 5577 5576 5576 5576 5577 5577 5577 5578 5578 5578 5578 5579 5581 5583 5583 5584 5590 5598 5601 5606 5605 5605 5604 5604
5599 5596 5593 5591 5588 5585 5582 5580 5579 5577 5576 5575 5575 5575 5575 5575 5573 5570 5569 5568 5567 5567 5566 5566 5567 5567 5567 5567 5567 5566 5567 5568 5570 5571 5571 5572 5573 5579 5588 5592 5592 5590 5590
5594 5591 5588 5585 5582 5578 5575 5573 5572 5571 5569 5568 5567 5567 5567 5566 5563 5562 5561 5560 5559 5558 5557 5557 5557 5557 5556 5556 5555 5555 5555 5556 5556 5556 5557 5559 5560 5562 5567 5575 5577 5577 5577
5588 5585 5583 5579 5576 5573 5570 5568 5566 5565 5563 5561 5560 5559 5558 5557 5555 5554 5553 5552 5551 5549 5548 5547 5546 5546 5545 5544 5543 5543 5543 5543 5543 5543 5543 5543 5545 5547 5549 5555 5559 5562 5564
5584 5581 5578 5575 5572 5569 5566 5563 5561 5560 5557 5555 5554 5552 5550 5549 5547 5546 5544 5543 5542 5540 5538 5537 5536 5535 5534 5533 5532 5532 5531 5531 5530 5530 5530 5530 5530 5531 5533 5537 5542 5546 5551
5580 5577 5574 5571 5569 5565 5562 5559 5557 5555 5552 5549 5547 5545 5542 5540 5539 5537 5535 5534 5532 5531 5528 5527 5526 5525 5524 5522 5522 5521 5520 5520 5519 5519 5518 5518 5517 5517 5518 5521 5524 5531 5538
5575 5573 5570 5567 5564 5561 5558 5555 5552 5550 5546 5544 5541 5538 5535 5533 5531 5529 5526 5525 5523 5521 5519 5518 5516 5515 5514 5513 5512 5511 5510 5508 5507 5506 5506 5505 5504 5504 5505 5506 5507 5510 5518
5571 5568 5566 5562 5559 5556 5553 5550 5547 5545 5541 5538 5534 5531 5528 5526 5523 5521 5518 5516 5514 5512 5510 5508 5507 5506 5504 5503 5502 5500 5499 5497 5496 5494 5493 5492 5492 5491 5491 5492 5493 5494 5496
5566 5564 5561 5558 5554 5551 5548 5545 5542 5539 5536 5532 5529 5525 5522 5519 5515 5513 5510 5507 5505 5503 5500 5499 5497 5496 5495 5493 5492 5490 5488 5486 5485 5483 5481 5480 5479 5479 5479 5478 5479 5479 5480
5561 5559 5556 5553 5550 5547 5544 5541 5537 5534 5531 5527 5523 5519 5516 5512 5508 5505 5502 5499 5496 5493 5491 5489 5488 5487 5485 5483 5481 5479 5477 5475 5473 5471 5469 5467 5466 5465 5465 5465 5465 5465 5466
5556 5554 5552 5549 5547 5544 5540 5537 5533 5529 5526 5521 5517 5513 5509 5505 5502 5498 5494 5491 5488 5485 5483 5480 5479 5477 5475 5473 5471 5469 5466 5464 5461 5459 5457 5455 5453 5453 5452 5452 5452 5452 5452
5552 5550 5548 5546 5543 5540 5536 5533 5529 5524 5519 5515 5511 5507 5504 5499 5495 5491 5486 5482 5479 5477 5474 5472 5469 5467 5465 5463 5460 5458 5455 5453 5450 5447 5444 5442 5440 5439 5438 5438 5437 5437 5438
5548 5546 5543 5542 5539 5536 5532 5528 5524 5519 5513 5508 5505 5501 5497 5492 5487 5483 5478 5474 5471 5468 5466 5463 5460 5458 5455 5453 5451 5448 5445 5443 5440 5436 5433 5430 5427 5424 5423 5422 5422 5422 5423
5545 5542 5539 5537 5534 5531 5528 5523 5518 5513 5507 5503 5499 5495 5490 5485 5480 5476 5471 5467 5463 5460 5457 5454 5452 5449 5446 5443 5440 5437 5436 5433 5430 5426 5423 5420 5416 5413 5411 5409 5408 5407 5408
5539 5537 5534 5532 5529 5526 5522 5518 5513 5507 5501 5497 5493 5488 5483 5478 5474 5469 5464 5460 5456 5452 5449 5447 5443 5441 5437 5433 5430 5427 5425 5423 5419 5416 5412 5409 5406 5402 5400 5398 5396 5395 5393
5532 5531 5528 5525 5522 5518 5514 5509 5505 5499 5494 5490 5486 5482 5476 5472 5467 5462 5457 5453 5449 5445 5442 5439 5435 5432 5429 5424 5421 5418 5416 5413 5409 5405 5402 5398 5395 5392 5389 5388 5386 5384 5383
5524 5522 5520 5517 5514 5511 5506 5501 5497 5492 5488 5484 5480 5475 5470 5465 5460 5455 5451 5446 5441 5437 5434 5430 5427 5423 5420 5415 5412 5409 5407 5404 5400 5396 5392 5388 5385 5382 5379 5378 5377 5376 5374
5515 5513 5511 5508 5505 5503 5498 5493 5490 5486 5482 5478 5474 5468 5462 5457 5453 5449 5444 5438 5434 5430 5425 5422 5418 5415 5412 5407 5403 5399 5398 5395 5392 5388 5383 5379 5375 5371 5369 5367 5366 5364 5363
5505 5502 5501 5499 5497 5492 5488 5485 5483 5480 5476 5471 5466 5461 5455 5450 5446 5441 5436 5430 5425 5421 5417 5414 5410 5407 5403 5399 5394 5390 5388 5385 5382 5378 5375 5370 5365 5361 5358 5356 5354 5351 5349
5496 5493 5491 5490 5487 5482 5478 5477 5475 5473 5467 5462 5457 5453 5448 5442 5437 5433 5428 5422 5417 5413 5409 5406 5403 5399 5395 5390 5386 5382 5378 5375 5372 5368 5364 5360 5355 5352 5348 5346 5343 5339 5337
5487 5484 5481 5480 5478 5474 5470 5469 5468 5463 5458 5453 5449 5445 5440 5435 5430 5425 5420 5415 5409 5405 5403 5399 5396 5393 5388 5383 5378 5373 5370 5366 5362 5359 5354 5350 5346 5342 5339 5336 5332 5328 5326
5478 5474 5471 5470 5470 5466 5462 5460 5457 5452 5448 5445 5441 5436 5432 5427 5422 5417 5412 5407 5403 5399 5395 5391 5388 5384 5379 5375 5370 5366 5362 5357 5353 5350 5346 5341 5337 5332 5328 5325 5322 5318 5315
5467 5463 5461 5460 5460 5457 5453 5450 5446 5442 5439 5436 5432 5428 5423 5418 5414 5409 5405 5400 5396 5392 5388 5384 5380 5375 5372 5367 5361 5357 5353 5349 5344 5340 5337 5333 5329 5325 5320 5316 5312 5308 5304
5456 5453 5451 5450 5449 5447 5444 5440 5437 5433 5430 5427 5424 5420 5415 5410 5405 5401 5396 5391 5386 5382 5377 5373 5369 5366 5362 5357 5352 5348 5343 5339 5335 5331 5328 5325 5320 5315 5311 5306 5302 5298 5294